Boone Municipal
Tuesday 12:55 AM
Temperature75° (75°/75°)
Dew Point66°
Relative Humidity74
%
Visibility10
mi
Pressure1012.5
mb
Wind DirectionSW
220°
Wind Speed15
mph
(G22)
Precipitation Today0.00"

Last 30 Observations

Time PresWx Temp DP Feels RH% Vsby Pressure Ceiling Direction Speed 1h Precip
12:35 AM 75° 66° 74
%
10
mi
1012.5
mb
SW
220°
15
mph
(G22)
0.00"
12:15 AM 75° 66° 74
%
10
mi
1012.5
mb
SW
220°
14
mph
0.00"
11:55 PM 75° 66° 74
%
10
mi
1012.5
mb
SW
220°
14
mph
(G21)
0.00"
11:35 PM 75° 64° 69
%
10
mi
1012.5
mb
SW
220°
11
mph
(G21)
0.00"
11:15 PM 77° 64° 65
%
10
mi
1012.5
mb
SSW
210°
16
mph
0.00"
10:55 PM 77° 63° 61
%
10
mi
1012.5
mb
SSW
200°
13
mph
(G23)
0.00"
10:35 PM 79° 63° 58
%
10
mi
1012.5
mb
SSW
210°
13
mph
(G21)
0.00"
10:15 PM 79° 63° 58
%
10
mi
1012.2
mb
SSW
200°
13
mph
0.00"
9:55 PM 81° 63° 54
%
10
mi
1012.2
mb
SW
220°
14
mph
0.00"
9:35 PM 81° 61° 51
%
10
mi
1012.2
mb
SSW
210°
13
mph
(G18)
0.00"
9:15 PM 82° 61° 48
%
10
mi
1012.2
mb
SSW
210°
14
mph
(G21)
0.00"
8:55 PM 82° 61° 48
%
10
mi
1011.9
mb
SW
220°
15
mph
0.00"
8:35 PM 82° 61° 48
%
10
mi
1011.9
mb
SSW
210°
10
mph
(G20)
0.00"
8:15 PM 84° 61° 45
%
10
mi
1011.5
mb
SSW
210°
14
mph
(G21)
0.00"
7:55 PM 86° 61° 43
%
10
mi
1011.5
mb
SW
220°
13
mph
(G20)
0.00"
7:35 PM 86° 61° 43
%
10
mi
1011.5
mb
SW
220°
17
mph
(G23)
0.00"
7:15 PM 86° 61° 43
%
10
mi
1011.2
mb
SSW
210°
15
mph
(G26)
0.00"
6:55 PM 88° 61° 40
%
10
mi
1010.8
mb
SW
220°
16
mph
(G31)
0.00"
6:35 PM 88° 61° 40
%
10
mi
1010.8
mb
SW
220°
18
mph
(G30)
0.00"
6:15 PM 88° 61° 40
%
10
mi
1011.2
mb
SW
220°
17
mph
(G26)
0.00"
5:55 PM 88° 61° 40
%
10
mi
1011.2
mb
SW
230°
21
mph
(G32)
0.00"
5:35 PM 88° 59° 38
%
10
mi
1011.2
mb
SW
230°
23
mph
(G31)
0.00"
5:15 PM 90° 59° 36
%
10
mi
1011.2
mb
SW
230°
23
mph
(G30)
0.00"
4:55 PM 90° 59° 36
%
10
mi
1011.2
mb
SW
230°
21
mph
(G33)
0.00"
4:35 PM 90° 59° 36
%
10
mi
1010.8
mb
SSW
210°
26
mph
(G36)
0.00"
4:15 PM 90° 61° 38
%
10
mi
1011.2
mb
SW
220°
23
mph
(G36)
0.00"
3:55 PM 90° 61° 38
%
10
mi
1011.2
mb
SSW
210°
24
mph
(G39)
0.00"
3:35 PM 88° 61° 40
%
10
mi
1011.5
mb
SSW
210°
21
mph
(G38)
0.00"
3:15 PM 88° 63° 43
%
10
mi
1011.5
mb
SSW
210°
22
mph
(G34)
0.00"
2:55 PM 88° 63° 43
%
10
mi
1011.9
mb
SSW
200°
21
mph
(G36)
0.00"